Location: Engle Ridge Observatory
(44.8122°N, 85.4398°W)
Time: 00:07:56
(UTC-05:00)

Daily predictions for brighter satellites

Satellite Brightness Start Highest point End
(mag) Time Altitude Azimuth Time Altitude Azimuth Time Altitude Azimuth
ADEOS II 4.0 03:49:14 10° NE 03:52:50 25° E 03:52:50 25° E
ATLAS CENTAUR R/B 4.0 03:57:39 48° ESE 03:57:39 48° ESE 04:06:43 10° SE
Cosmos 2369 Rocket 3.8 03:58:18 31° E 03:58:18 31° E 04:02:12 10° NE
USA 234 4.1 04:01:09 10° ENE 04:07:05 42° SE 04:07:05 42° SE
ADEOS Rocket 4.1 04:11:23 10° N 04:15:37 38° N 04:15:37 38° N
Lacrosse 5 3.9 04:21:27 22° ESE 04:21:27 22° ESE 04:25:07 10° ENE
ATLAS 5 CENTAUR R/B 2.9 04:40:35 40° ESE 04:40:35 40° ESE 04:45:15 10° NE
Cosmos 1867 3.9 04:42:03 62° NE 04:42:03 62° NE 04:46:38 10° NE
CZ-4B R/B 3.3 04:37:51 10° NNE 04:43:24 76° E 04:43:24 76° E
Cosmos 1943 Rocket 3.1 04:46:13 31° SSE 04:48:13 43° ESE 04:53:26 10° NE
Cosmos 1190 Rocket 4.3 04:50:32 41° N 04:52:19 67° ENE 04:57:33 10° SSE
Okean O Rocket 3.6 04:49:33 10° N 04:50:54 20° N 04:50:54 20° N
Cosmos 1624 Rocket 3.9 05:07:59 67° SSW 05:08:44 89° ESE 05:14:06 10° NNE
Cosmos 2056 Rocket 3.4 05:09:10 64° S 05:09:58 85° ESE 05:15:12 10° NNE
PAYLOAD B 4.2 05:05:00 10° N 05:10:17 61° WNW 05:10:17 61° WNW
Nadezhda 2 Rocket 4.4 05:04:29 10° N 05:10:37 82° E 05:16:45 10° S
Cosmos 2266 Rocket 3.9 05:09:01 10° NNW 05:15:03 59° W 05:20:59 10° S
COSMO-SKYMED 1 4.2 05:11:29 10° SE 05:15:24 34° ENE 05:19:21 10° N
MOS 1 Rocket 4.5 05:12:40 10° N 05:16:21 34° NW 05:16:21 34° NW
Meteor 1-31 Rocket 3.0 05:18:24 10° NNE 05:22:20 69° ESE 05:23:13 49° SSE
Cosmos 972 Rocket 3.9 05:22:16 59° WSW 05:23:02 68° WNW 05:28:30 10° NNE
CZ-4B DEB 4.3 05:19:35 10° N 05:24:56 51° WNW 05:25:23 50° W
Abrixas 4.0 05:28:55 34° ENE 05:28:55 34° ENE 05:30:44 10° ENE
Feng Yun 1-1 Rocket 4.4 05:26:39 10° NNE 05:32:33 85° ESE 05:38:29 10° SSW
Cosmos 2219 4.1 05:27:14 10° NNW 05:32:46 49° ENE 05:38:13 10° SE
ADEOS II 2.3 05:28:30 10° N 05:33:30 44° WNW 05:33:48 44° WNW
Thor Agena Rocket 3.4 05:31:09 10° S 05:36:22 76° WSW 05:41:34 10° NNW
CZ-4B R/B 3.7 05:33:05 10° NNE 05:37:01 85° WNW 05:39:08 28° SSW
Cosmos 1371 Rocket 4.3 05:37:48 42° WNW 05:38:17 43° WNW 05:43:14 10° N
Sich 1 Rocket 3.5 05:34:04 10° NNW 05:38:34 61° W 05:42:59 10° S
Cosmos 2227 Rocket 4.5 05:36:19 10° N 05:40:41 22° NE 05:45:02 10° E
Cosmos 2369 Rocket 2.7 05:40:08 37° W 05:41:04 40° NW 05:46:24 10° NNE
Tiangong 1 2.9 05:43:28 20° SSE 05:43:48 21° SSE 05:46:06 10° ESE
Cosmos 1908 Rocket 3.6 05:41:27 10° NNW 05:45:49 53° W 05:50:11 10° S
Okean-O 2.5 05:41:53 10° N 05:46:17 64° WNW 05:49:13 20° SSW
Okean 1-7 3.3 05:42:35 10° S 05:46:49 67° E 05:51:04 10° NNE
Cosmos 1933 4.4 05:50:52 29° NW 05:50:52 29° NW 05:53:36 10° N
USA 234 3.3 05:44:02 10° NE 05:50:30 67° NNW 05:54:27 25° WSW
CZ-4C R/B 2.8 05:46:01 10° SSW 05:51:08 55° ESE 05:56:56 10° NE
Cosmos 1782 Rocket 3.4 05:46:46 10° N 05:51:16 79° W 05:55:42 10° S
Cosmos 1452 Rocket 3.6 05:46:09 10° SSW 05:51:26 83° ESE 05:56:45 10° NNE
Cosmos 1656 Rocket 3.9 05:51:08 10° SSW 05:56:47 73° ESE 06:02:28 10° NNE
Cosmos 1244 Rocket 4.5 05:50:58 10° NNW 05:57:06 59° W 06:03:08 10° S
Cosmos 1833 4.3 05:53:21 10° NW 05:58:42 47° WSW 06:04:02 10° S
Cosmos 1023 Rocket 4.4 05:57:00 10° NNW 06:02:15 83° WSW 06:07:31 10° SSE
SKYMED 2 3.4 05:59:03 10° S 06:03:23 75° WSW 06:07:44 10° NNW
Lacrosse 5 1.8 06:00:42 24° WSW 06:03:48 75° NW 06:08:54 10° NE
Lacrosse 5 rocket 3.1 06:01:18 11° NNW 06:03:56 21° NNE 06:06:46 10° ENE
Cosmos 407 Rocket 4.2 06:03:26 10° NW 06:08:10 33° W 06:12:52 10° SSW
Cosmos 676 Rocket 4.3 06:05:47 10° NNW 06:10:47 44° WSW 06:15:48 10° S
Okean 2 Rocket 3.0 06:06:42 10° NNW 06:11:05 65° W 06:15:24 10° S
USA 81 4.3 06:07:16 10° S 06:12:31 73° E 06:17:47 10° N
SL-08 R/B 4.5 06:08:12 10° NNW 06:14:28 69° W 06:20:44 10° S
Radarsat Rocket 4.3 06:08:59 10° NNE 06:16:31 83° WNW 06:23:05 10° SSW
ERS-2 4.2 06:15:04 10° NNW 06:16:12 14° NW 06:16:12 14° NW
ATLAS 3B R/B 4.1 06:12:14 10° S 06:19:19 45° ESE 06:26:10 10° NE
Meteor 1-20 Rocket 4.2 06:18:12 10° NNW 06:23:55 71° W 06:29:29 10° S
S3M 4.0 06:18:41 10° SSW 06:24:58 66° W 06:31:16 10° N
ATLAS 5 CENTAUR R/B 2.6 06:22:11 18° W 06:25:13 35° NW 06:30:05 10° NNE
Cosmos 1782 2.7 06:22:53 10° S 06:26:51 85° WNW 06:30:51 10° N
Cosmos 1703 Rocket 4.3 06:23:37 10° SW 06:27:25 30° WNW 06:31:17 10° NNW
Cosmos 2151 Rocket 3.6 06:25:26 10° N 06:29:58 87° W 06:34:28 10° S
Meteor 1-28 Rocket 3.4 06:26:46 10° S 06:30:23 48° W 06:34:01 10° NNW
Cosmos 1140 Rocket 3.8 06:27:03 10° NNW 06:32:02 46° WSW 06:37:00 10° S
Cosmos 1943 Rocket 2.9 06:27:48 13° WSW 06:32:05 31° NW 06:37:02 10° N
Cosmos 1553 Rocket 4.1 06:27:30 10° SSW 06:33:32 55° WNW 06:39:42 10° N
Meteor 2-10 Rocket 4.0 06:29:10 10° SW 06:33:40 34° WNW 06:38:16 10° N
Cosmos 1633 3.2 06:32:58 10° N 06:36:35 59° E 06:40:10 10° SSE
Cosmos 1602 4.2 06:39:09 10° N 06:43:07 68° E 06:47:03 10° SSE
Cosmos 614 Rocket 4.2 06:38:26 10° NNW 06:43:18 47° WSW 06:48:12 10° S
CSL-04 Rocket 3.7 06:40:56 10° NNE 06:46:19 85° WNW 06:51:45 10° SSW
COSMO-SKYMED 1 3.7 06:48:07 10° SSW 06:51:38 24° W 06:55:10 10° NW
Cosmos 1606 2.8 06:48:09 10° SSW 06:51:57 55° W 06:55:48 10° N
IDEFIX/ARIANE 42P 3.0 06:46:48 10° NNE 06:52:03 71° ESE 06:57:13 10° S
Cosmos 1850 Rocket 4.3 06:47:40 10° NNW 06:52:48 48° WSW 06:57:52 10° S
CZ-4 R/B 2.0 06:48:43 10° NNE 06:52:54 64° ESE 06:56:59 10° S
PAYLOAD A 3.8 06:48:17 10° NNE 06:53:01 81° WNW 06:57:49 10° SSW
Meteor 2-6 Rocket 4.1 06:49:04 10° SSW 06:54:25 70° WNW 06:59:50 10° N
CZ-2C R/B 2.7 06:52:57 10° NNE 06:57:49 78° ESE 07:02:50 10° S
SMAP 3.6 06:55:56 10° NNE 07:00:35 65° ESE 07:05:12 10° S
Cosmos 1709 Rocket 3.9 06:56:22 10° NNW 07:02:28 73° W 07:08:34 10° S
